Preview of NWS' New Version of Forecast
This preview is not operational and should not be used for support decisions.

Regional Weather Roundup (RWR)

Issued by National Weather Service (NWS)

                            
000
ASCA42 TJSJ 201410
RWRPR 
PUERTO RICO/U.S. VIRGIN ISLANDS HOURLY WEATHER ROUNDUP
NATIONAL WEATHER SERVICE SAN JUAN PR
1000 AM AST THU JUN 20 2019

PRZ001>002-007>008-010-201500-
PUERTO RICO
  
CITY           SKY/WX    TMP DP  RH WIND       PRES   REMARKS
SAN JUAN LMM   MOSUNNY   90  75  62 E16G25    30.11R HX 100           
AGUADILLA      MOSUNNY   84  75  74 E16G22    30.12R HX  92           
CEIBA          CLOUDY    88  77  70 E14       30.14R HX 100           
$$

VIZ001>002-201500-
U.S. VIRGIN ISLANDS
  
CITY           SKY/WX    TMP DP  RH WIND       PRES   REMARKS
CHARLOTTE AMA  MOSUNNY   86  75  70 SE21      30.12R HX  95           
$$

HOURLY WEATHER ROUNDUP FOR THE NEWS MEDIA
  
CITY           SKY/WX    TMP DP  RH WIND       PRES   REMARKS
ORLANDO        FAIR      85  75  72 SW14      30.05R HX  93           
NEW YORK       DRZL/FOG  69  69 100 S9        29.65S VSB 1/8          
NEWARK         CLOUDY    70  69  97 NE3       29.63S FOG              
CHICAGO        CLOUDY    60  58  92 N13       29.66R FOG              
HARTFORD       LGT RAIN  64  62  93 SE6       29.70R FOG              
BOSTON         RAIN      63  60  90 E9        29.70S VSB 1/2          
DALLAS         MOSUNNY   81  68  64 S10       29.80S                  
PHILADELPHIA   CLOUDY    77  73  87 S3        29.61                   
LOS ANGELES    CLOUDY    64  58  80 NW7       29.95S                  
WASHINGTON DC  PTSUNNY   80  71  74 SW8       29.62S